Time,TemperatureF,DewpointF,PressureIn,WindDirection,WindDirectionDegrees,WindSpeedMPH,WindSpeedGustMPH,Humidity,HourlyPrecipIn,Conditions,Clouds,dailyrainin,SoftwareType,DateUTC
2013-07-21 00:03:00,57.0,56.7,29.95,North,0,0.0,0.0,99,0.00,,,0.00,meteohub,2013-07-21 07:03:00,
2013-07-21 00:08:00,56.8,56.5,29.95,North,0,0.0,1.0,99,0.00,,,0.00,meteohub,2013-07-21 07:08:00,
2013-07-21 00:13:00,56.5,56.1,29.94,North,0,0.0,1.0,99,0.00,,,0.00,meteohub,2013-07-21 07:13:00,
2013-07-21 00:18:00,56.3,55.9,29.95,North,0,0.0,1.0,99,0.00,,,0.00,meteohub,2013-07-21 07:18:00,
2013-07-21 00:23:00,56.1,55.8,29.95,North,0,0.0,0.0,99,0.00,,,0.00,meteohub,2013-07-21 07:23:00,
2013-07-21 00:28:00,55.8,55.4,29.95,North,0,0.0,0.0,99,0.00,,,0.00,meteohub,2013-07-21 07:28:00,
2013-07-21 00:33:00,55.6,55.2,29.95,North,0,0.0,0.0,99,0.00,,,0.00,meteohub,2013-07-21 07:33:00,
2013-07-21 00:38:00,55.2,54.9,29.95,North,0,0.0,0.0,99,0.00,,,0.00,meteohub,2013-07-21 07:38:00,
2013-07-21 00:43:00,55.2,54.9,29.95,North,0,0.0,0.0,99,0.00,,,0.00,meteohub,2013-07-21 07:43:00,
2013-07-21 00:48:00,55.0,54.7,29.95,North,0,0.0,0.0,99,0.00,,,0.00,meteohub,2013-07-21 07:48:00,
2013-07-21 00:53:00,54.9,54.5,29.95,North,0,0.0,0.0,99,0.00,,,0.00,meteohub,2013-07-21 07:53:00,
2013-07-21 00:58:00,54.7,54.3,29.94,North,0,0.0,0.0,99,0.00,,,0.00,meteohub,2013-07-21 07:58:00,
2013-07-21 01:03:00,54.7,54.3,29.95,North,0,0.0,0.0,99,0.00,,,0.00,meteohub,2013-07-21 08:03:00,
2013-07-21 01:08:00,54.5,54.1,29.95,North,0,0.0,0.0,99,0.00,,,0.00,meteohub,2013-07-21 08:08:00,
2013-07-21 01:13:00,54.3,54.0,29.95,North,0,0.0,0.0,99,0.00,,,0.00,meteohub,2013-07-21 08:13:00,
2013-07-21 01:18:00,54.1,53.8,29.95,North,0,0.0,0.0,99,0.00,,,0.00,meteohub,2013-07-21 08:18:00,
2013-07-21 01:23:00,54.1,53.8,29.95,North,0,0.0,0.0,99,0.00,,,0.00,meteohub,2013-07-21 08:23:00,
2013-07-21 01:28:00,54.1,53.8,29.94,North,0,0.0,0.0,99,0.00,,,0.00,meteohub,2013-07-21 08:28:00,
2013-07-21 01:33:00,54.1,53.8,29.94,North,0,0.0,0.0,99,0.00,,,0.00,meteohub,2013-07-21 08:33:00,
2013-07-21 01:38:00,54.0,53.6,29.94,North,0,0.0,0.0,99,0.00,,,0.00,meteohub,2013-07-21 08:38:00,
2013-07-21 01:43:00,53.8,53.4,29.94,North,0,0.0,0.0,99,0.00,,,0.00,meteohub,2013-07-21 08:43:00,
2013-07-21 01:48:00,53.8,53.4,29.94,North,0,0.0,0.0,99,0.00,,,0.00,meteohub,2013-07-21 08:48:00,
2013-07-21 01:53:00,53.6,53.2,29.94,North,0,0.0,0.0,99,0.00,,,0.00,meteohub,2013-07-21 08:53:00,
2013-07-21 01:58:00,53.4,53.1,29.94,North,0,0.0,0.0,99,0.00,,,0.00,meteohub,2013-07-21 08:58:00,
2013-07-21 02:03:00,53.2,52.9,29.94,North,0,0.0,0.0,99,0.00,,,0.00,meteohub,2013-07-21 09:03:00,
2013-07-21 02:09:00,53.2,52.9,29.94,North,0,0.0,0.0,99,0.00,,,0.00,meteohub,2013-07-21 09:09:00,
2013-07-21 02:14:00,53.1,52.7,29.94,North,0,0.0,0.0,99,0.00,,,0.00,meteohub,2013-07-21 09:14:00,
2013-07-21 02:19:00,53.1,52.7,29.94,North,0,0.0,0.0,99,0.00,,,0.00,meteohub,2013-07-21 09:19:00,
2013-07-21 02:24:00,52.9,52.5,29.94,North,0,0.0,0.0,99,0.00,,,0.00,meteohub,2013-07-21 09:24:00,
2013-07-21 02:29:00,52.9,52.5,29.94,North,0,0.0,0.0,99,0.00,,,0.00,meteohub,2013-07-21 09:29:00,
2013-07-21 02:34:00,52.7,52.3,29.95,North,0,0.0,0.0,99,0.00,,,0.00,meteohub,2013-07-21 09:34:00,
2013-07-21 02:39:00,52.5,52.2,29.95,North,0,0.0,0.0,99,0.00,,,0.00,meteohub,2013-07-21 09:39:00,
2013-07-21 02:44:00,52.3,52.0,29.95,North,0,0.0,0.0,99,0.00,,,0.00,meteohub,2013-07-21 09:44:00,
2013-07-21 02:49:00,52.3,52.0,29.94,North,0,0.0,0.0,99,0.00,,,0.00,meteohub,2013-07-21 09:49:00,
2013-07-21 02:54:00,52.2,51.8,29.94,North,0,0.0,0.0,99,0.00,,,0.00,meteohub,2013-07-21 09:54:00,
2013-07-21 02:59:00,52.0,51.6,29.94,North,0,0.0,0.0,99,0.00,,,0.00,meteohub,2013-07-21 09:59:00,
2013-07-21 03:04:00,52.0,51.6,29.94,North,0,0.0,0.0,99,0.00,,,0.00,meteohub,2013-07-21 10:04:00,
2013-07-21 03:09:00,52.0,51.6,29.95,North,0,0.0,0.0,99,0.00,,,0.00,meteohub,2013-07-21 10:09:00,
2013-07-21 03:14:00,52.0,51.6,29.95,North,0,0.0,0.0,99,0.00,,,0.00,meteohub,2013-07-21 10:14:00,
2013-07-21 03:19:00,51.8,51.4,29.95,North,0,0.0,0.0,99,0.00,,,0.00,meteohub,2013-07-21 10:19:00,
2013-07-21 03:24:00,51.8,51.4,29.95,North,0,0.0,0.0,99,0.00,,,0.00,meteohub,2013-07-21 10:24:00,
2013-07-21 03:29:00,52.0,51.6,29.94,North,0,0.0,0.0,99,0.00,,,0.00,meteohub,2013-07-21 10:29:00,
2013-07-21 03:34:00,51.8,51.4,29.94,North,0,0.0,0.0,99,0.00,,,0.00,meteohub,2013-07-21 10:34:00,
2013-07-21 03:39:00,51.8,51.4,29.94,North,0,0.0,0.0,99,0.00,,,0.00,meteohub,2013-07-21 10:39:00,
2013-07-21 03:44:00,51.6,51.3,29.95,North,0,0.0,0.0,99,0.00,,,0.00,meteohub,2013-07-21 10:44:00,
2013-07-21 03:49:00,52.0,51.6,29.94,North,0,0.0,0.0,99,0.00,,,0.00,meteohub,2013-07-21 10:49:00,
2013-07-21 03:54:00,52.3,52.0,29.95,North,0,0.0,0.0,99,0.00,,,0.00,meteohub,2013-07-21 10:54:00,
2013-07-21 03:59:00,52.7,52.3,29.94,North,0,0.0,0.0,99,0.00,,,0.00,meteohub,2013-07-21 10:59:00,
2013-07-21 04:04:00,52.9,52.5,29.95,North,0,0.0,0.0,99,0.00,,,0.00,meteohub,2013-07-21 11:04:00,
2013-07-21 04:09:00,53.2,52.9,29.95,North,0,0.0,0.0,99,0.00,,,0.00,meteohub,2013-07-21 11:09:00,
2013-07-21 04:14:00,53.2,52.9,29.95,North,0,0.0,0.0,99,0.00,,,0.00,meteohub,2013-07-21 11:14:00,
2013-07-21 04:19:00,53.4,53.1,29.94,North,0,0.0,0.0,99,0.00,,,0.00,meteohub,2013-07-21 11:19:00,
2013-07-21 04:24:00,54.7,54.3,29.94,West,270,0.0,0.0,99,0.00,,,0.00,meteohub,2013-07-21 11:24:00,
2013-07-21 04:29:00,54.5,54.1,29.94,West,270,0.0,0.0,99,0.00,,,0.00,meteohub,2013-07-21 11:29:00,
2013-07-21 04:34:00,54.5,54.1,29.94,West,270,0.0,0.0,99,0.00,,,0.00,meteohub,2013-07-21 11:34:00,
2013-07-21 04:39:00,54.7,54.3,29.95,West,270,0.0,0.0,99,0.00,,,0.00,meteohub,2013-07-21 11:39:00,
2013-07-21 04:44:00,47.1,46.9,29.94,ESE,113,0.0,0.0,99,0.00,,,0.00,meteohub,2013-07-21 11:44:00,
2013-07-21 04:49:00,47.5,47.3,29.94,ESE,113,0.0,0.0,99,0.00,,,0.00,meteohub,2013-07-21 11:49:00,
2013-07-21 04:54:00,47.3,47.1,29.95,ESE,113,0.0,0.0,99,0.00,,,0.00,meteohub,2013-07-21 11:54:00,
2013-07-21 05:00:00,47.8,47.7,29.95,ESE,113,0.0,0.0,99,0.00,,,0.00,meteohub,2013-07-21 12:00:00,
2013-07-21 05:05:00,47.7,47.5,29.94,ESE,113,0.0,0.0,99,0.00,,,0.00,meteohub,2013-07-21 12:05:00,
2013-07-21 05:10:00,55.6,55.2,29.94,ESE,113,0.0,0.0,99,0.00,,,0.00,meteohub,2013-07-21 12:10:00,
2013-07-21 05:15:00,55.6,55.2,29.95,North,-999,-999.0,0.0,99,0.00,,,0.00,meteohub,2013-07-21 12:15:00,
2013-07-21 05:20:00,51.4,51.1,29.95,NNE,23,0.0,0.0,99,0.00,,,0.00,meteohub,2013-07-21 12:20:00,
2013-07-21 05:25:00,51.8,51.4,29.95,NNE,23,0.0,0.0,99,0.00,,,0.00,meteohub,2013-07-21 12:25:00,
2013-07-21 05:30:00,52.0,51.6,29.95,NNE,23,0.0,0.0,99,0.00,,,0.00,meteohub,2013-07-21 12:30:00,
2013-07-21 05:35:00,51.8,51.4,29.95,NNE,23,0.0,0.0,99,0.00,,,0.00,meteohub,2013-07-21 12:35:00,
2013-07-21 05:40:00,52.0,51.6,29.95,NNE,23,0.0,0.0,99,0.00,,,0.00,meteohub,2013-07-21 12:40:00,
2013-07-21 05:45:00,52.2,51.8,29.95,NNE,23,0.0,0.0,99,0.00,,,0.00,meteohub,2013-07-21 12:45:00,
2013-07-21 05:50:00,52.2,51.8,29.94,NNE,23,0.0,0.0,99,0.00,,,0.00,meteohub,2013-07-21 12:50:00,
2013-07-21 05:55:00,46.0,45.9,29.95,SSW,203,1.0,0.0,99,0.00,,,0.00,meteohub,2013-07-21 12:55:00,
2013-07-21 06:00:00,56.1,55.8,29.95,SSW,203,0.0,0.0,99,0.00,,,0.00,meteohub,2013-07-21 13:00:00,
2013-07-21 06:05:00,55.4,55.0,29.96,West,270,0.0,1.0,99,0.00,,,0.00,meteohub,2013-07-21 13:05:00,
2013-07-21 06:10:00,55.6,55.2,29.95,West,270,0.0,1.0,99,0.00,,,0.00,meteohub,2013-07-21 13:10:00,
2013-07-21 06:15:00,48.6,48.4,29.96,SSW,203,1.0,1.0,99,0.00,,,0.00,meteohub,2013-07-21 13:15:00,
2013-07-21 06:20:00,47.8,47.7,29.95,ESE,113,0.0,3.0,99,0.00,,,0.00,meteohub,2013-07-21 13:20:00,
2013-07-21 06:25:00,54.3,54.0,29.95,North,0,0.0,3.0,99,0.00,,,0.00,meteohub,2013-07-21 13:25:00,
2013-07-21 06:30:00,54.5,54.1,29.96,North,0,0.0,3.0,99,0.00,,,0.00,meteohub,2013-07-21 13:30:00,
2013-07-21 06:35:00,47.3,47.1,29.96,ESE,113,0.0,1.0,99,0.00,,,0.00,meteohub,2013-07-21 13:35:00,
2013-07-21 06:40:00,54.5,54.1,29.96,North,0,0.0,1.0,99,0.00,,,0.00,meteohub,2013-07-21 13:40:00,
2013-07-21 06:45:00,46.9,46.8,29.96,SSW,203,1.0,1.0,99,0.00,,,0.00,meteohub,2013-07-21 13:45:00,
2013-07-21 06:50:00,47.1,46.9,29.95,ESE,113,0.0,1.0,99,0.00,,,0.00,meteohub,2013-07-21 13:50:00,
2013-07-21 06:55:00,55.9,55.6,29.95,West,270,0.0,1.0,99,0.00,,,0.00,meteohub,2013-07-21 13:55:00,
2013-07-21 07:00:00,56.1,55.8,29.95,West,270,0.0,2.0,99,0.00,,,0.00,meteohub,2013-07-21 14:00:00,
2013-07-21 07:05:00,56.8,56.5,29.96,North,0,1.0,2.0,99,0.00,,,0.00,meteohub,2013-07-21 14:05:00,
2013-07-21 07:10:00,49.3,49.1,29.96,SSW,203,1.0,2.0,99,0.00,,,0.00,meteohub,2013-07-21 14:10:00,
2013-07-21 07:15:00,51.4,51.1,29.95,SSW,203,0.0,2.0,99,0.00,,,0.00,meteohub,2013-07-21 14:15:00,
2013-07-21 07:20:00,57.0,56.7,29.96,SSW,203,0.0,2.0,99,0.00,,,0.00,meteohub,2013-07-21 14:20:00,
2013-07-21 07:25:00,57.2,56.8,29.96,North,-999,-999.0,2.0,99,0.00,,,0.00,meteohub,2013-07-21 14:25:00,
2013-07-21 07:30:00,57.6,57.2,29.96,North,-999,-999.0,0.0,99,0.00,,,0.00,meteohub,2013-07-21 14:30:00,
2013-07-21 07:35:00,52.2,51.8,29.96,SSW,203,0.0,1.0,99,0.00,,,0.00,meteohub,2013-07-21 14:35:00,
2013-07-21 07:40:00,57.7,57.4,29.95,SSW,203,0.0,1.0,99,0.00,,,0.00,meteohub,2013-07-21 14:40:00,
2013-07-21 07:45:00,57.9,57.6,29.96,West,270,0.0,1.0,99,0.00,,,0.00,meteohub,2013-07-21 14:45:00,
2013-07-21 07:50:00,49.3,49.1,29.96,ESE,113,2.0,2.0,99,0.00,,,0.00,meteohub,2013-07-21 14:50:00,
2013-07-21 07:55:00,51.4,51.1,29.96,SSW,203,2.0,2.0,99,0.00,,,0.00,meteohub,2013-07-21 14:55:00,
2013-07-21 08:00:00,61.3,61.0,29.96,West,270,3.0,3.0,99,0.00,,,0.00,meteohub,2013-07-21 15:00:00,
2013-07-21 08:05:00,52.2,51.8,29.96,SSW,203,2.0,3.0,99,0.00,,,0.00,meteohub,2013-07-21 15:05:00,
2013-07-21 08:10:00,54.5,54.1,29.96,NNE,23,0.0,3.0,99,0.00,,,0.00,meteohub,2013-07-21 15:10:00,
2013-07-21 08:15:00,51.1,50.7,29.96,SSW,203,1.0,3.0,99,0.00,,,0.00,meteohub,2013-07-21 15:15:00,
2013-07-21 08:20:00,53.4,53.1,29.96,SSW,203,1.0,2.0,99,0.00,,,0.00,meteohub,2013-07-21 15:20:00,
2013-07-21 08:25:00,51.1,50.7,29.96,ESE,113,0.0,2.0,99,0.00,,,0.00,meteohub,2013-07-21 15:25:00,
2013-07-21 08:30:00,55.4,55.0,29.96,WSW,248,1.0,2.0,99,0.00,,,0.00,meteohub,2013-07-21 15:30:00,
2013-07-21 08:35:00,61.2,60.8,29.96,North,0,0.0,1.0,99,0.00,,,0.00,meteohub,2013-07-21 15:35:00,
2013-07-21 08:41:00,58.3,57.9,29.96,West,270,0.0,1.0,99,0.00,,,0.00,meteohub,2013-07-21 15:41:00,
2013-07-21 08:46:00,52.9,52.5,29.96,ESE,113,0.0,1.0,99,0.00,,,0.00,meteohub,2013-07-21 15:46:00,
2013-07-21 08:51:00,59.4,59.0,29.96,SSW,203,2.0,2.0,99,0.00,,,0.00,meteohub,2013-07-21 15:51:00,
2013-07-21 08:56:00,57.9,57.6,29.96,North,0,0.0,2.0,99,0.00,,,0.00,meteohub,2013-07-21 15:56:00,
2013-07-21 09:01:00,53.6,53.2,29.96,ESE,113,0.0,2.0,99,0.00,,,0.00,meteohub,2013-07-21 16:01:00,
2013-07-21 09:06:00,54.5,54.1,29.96,SSW,203,2.0,2.0,99,0.00,,,0.00,meteohub,2013-07-21 16:06:00,
2013-07-21 09:11:00,53.6,53.2,29.96,ESE,113,0.0,2.0,99,0.00,,,0.00,meteohub,2013-07-21 16:11:00,
2013-07-21 09:16:00,52.2,51.8,29.96,ESE,113,1.0,2.0,99,0.00,,,0.00,meteohub,2013-07-21 16:16:00,
2013-07-21 09:21:00,60.6,60.3,29.96,ESE,113,0.0,2.0,99,0.00,,,0.00,meteohub,2013-07-21 16:21:00,
2013-07-21 09:26:00,60.1,59.7,29.96,North,0,0.0,1.0,99,0.00,,,0.00,meteohub,2013-07-21 16:26:00,
2013-07-21 09:31:00,59.9,59.5,29.96,North,0,0.0,1.0,99,0.00,,,0.00,meteohub,2013-07-21 16:31:00,
2013-07-21 09:36:00,60.4,60.1,29.96,North,0,0.0,1.0,99,0.00,,,0.00,meteohub,2013-07-21 16:36:00,
2013-07-21 09:41:00,64.2,63.7,29.96,SE,135,2.0,2.0,98,0.00,,,0.00,meteohub,2013-07-21 16:41:00,
2013-07-21 09:46:00,54.7,54.3,29.96,WSW,248,2.0,2.0,99,0.00,,,0.00,meteohub,2013-07-21 16:46:00,
2013-07-21 09:51:00,61.5,61.2,29.96,WSW,248,2.0,2.0,99,0.00,,,0.00,meteohub,2013-07-21 16:51:00,
2013-07-21 09:56:00,57.6,57.0,29.96,SSW,203,1.0,2.0,98,0.00,,,0.00,meteohub,2013-07-21 16:56:00,
2013-07-21 10:01:00,56.3,55.8,29.96,East,90,1.0,2.0,98,0.00,,,0.00,meteohub,2013-07-21 17:01:00,
2013-07-21 10:06:00,61.7,61.2,29.96,North,0,1.0,2.0,98,0.00,,,0.00,meteohub,2013-07-21 17:06:00,
2013-07-21 10:11:00,60.8,59.9,29.96,North,0,0.0,2.0,97,0.00,,,0.00,meteohub,2013-07-21 17:11:00,
2013-07-21 10:16:00,61.3,60.4,29.96,North,0,0.0,2.0,97,0.00,,,0.00,meteohub,2013-07-21 17:16:00,
2013-07-21 10:21:00,59.7,58.6,29.96,SSW,203,1.0,2.0,96,0.00,,,0.00,meteohub,2013-07-21 17:21:00,
2013-07-21 10:26:00,60.1,58.3,29.96,SSW,203,1.0,2.0,94,0.00,,,0.00,meteohub,2013-07-21 17:26:00,
2013-07-21 10:31:00,62.8,61.0,29.96,West,270,1.0,2.0,94,0.00,,,0.00,meteohub,2013-07-21 17:31:00,
2013-07-21 10:36:00,59.7,57.7,29.96,SSW,203,2.0,2.0,93,0.00,,,0.00,meteohub,2013-07-21 17:36:00,
2013-07-21 10:41:00,63.3,61.3,29.96,South,180,1.0,2.0,93,0.00,,,0.00,meteohub,2013-07-21 17:41:00,
2013-07-21 10:46:00,62.6,60.3,29.96,North,0,0.0,2.0,92,0.00,,,0.00,meteohub,2013-07-21 17:46:00,
2013-07-21 10:51:00,63.9,61.5,29.96,West,270,1.0,3.0,92,0.00,,,0.00,meteohub,2013-07-21 17:51:00,
2013-07-21 10:56:00,61.0,58.6,29.96,SSW,203,0.0,3.0,92,0.00,,,0.00,meteohub,2013-07-21 17:56:00,
2013-07-21 11:01:00,63.0,60.6,29.95,North,0,1.0,2.0,92,0.00,,,0.00,meteohub,2013-07-21 18:01:00,
2013-07-21 11:06:00,64.2,61.9,29.96,North,0,2.0,2.0,92,0.00,,,0.00,meteohub,2013-07-21 18:06:00,
2013-07-21 11:11:00,64.0,61.3,29.95,West,270,0.0,2.0,91,0.00,,,0.00,meteohub,2013-07-21 18:11:00,
2013-07-21 11:16:00,64.2,61.0,29.96,West,270,2.0,2.0,89,0.00,,,0.00,meteohub,2013-07-21 18:16:00,
2013-07-21 11:21:00,64.2,61.0,29.96,West,270,2.0,2.0,89,0.00,,,0.00,meteohub,2013-07-21 18:21:00,
2013-07-21 11:26:00,60.3,57.4,29.96,SSW,203,1.0,2.0,90,0.00,,,0.00,meteohub,2013-07-21 18:26:00,
2013-07-21 11:31:00,62.2,59.0,29.95,SSW,203,2.0,2.0,89,0.00,,,0.00,meteohub,2013-07-21 18:31:00,
2013-07-21 11:36:00,64.8,61.7,29.96,ESE,113,0.0,2.0,90,0.00,,,0.00,meteohub,2013-07-21 18:36:00,
2013-07-21 11:41:00,62.1,58.5,29.96,SSW,203,1.0,2.0,88,0.00,,,0.00,meteohub,2013-07-21 18:41:00,
2013-07-21 11:46:00,64.9,61.7,29.96,West,270,1.0,2.0,89,0.00,,,0.00,meteohub,2013-07-21 18:46:00,
2013-07-21 11:52:00,63.0,58.6,29.96,SSW,203,2.0,2.0,86,0.00,,,0.00,meteohub,2013-07-21 18:52:00,
2013-07-21 11:57:00,61.2,57.2,29.96,ESE,113,2.0,3.0,87,0.00,,,0.00,meteohub,2013-07-21 18:57:00,
2013-07-21 12:02:00,62.4,58.1,29.96,ESE,113,0.0,3.0,86,0.00,,,0.00,meteohub,2013-07-21 19:02:00,
2013-07-21 12:07:00,66.6,62.2,29.96,WSW,248,0.0,3.0,86,0.00,,,0.00,meteohub,2013-07-21 19:07:00,
2013-07-21 12:12:00,62.8,57.9,29.95,ESE,113,2.0,2.0,84,0.00,,,0.00,meteohub,2013-07-21 19:12:00,
2013-07-21 12:57:00,58.6,50.0,29.96,South,180,1.0,2.0,73,0.00,,,0.00,meteohub,2013-07-21 19:57:00,
2013-07-21 13:02:00,72.7,63.9,29.95,North,0,2.0,2.0,74,0.00,,,0.00,meteohub,2013-07-21 20:02:00,
2013-07-21 13:07:00,71.8,62.6,29.95,ESE,113,2.0,2.0,73,0.00,,,0.00,meteohub,2013-07-21 20:07:00,
2013-07-21 13:12:00,74.7,65.8,29.95,North,0,0.0,2.0,74,0.00,,,0.00,meteohub,2013-07-21 20:12:00,
2013-07-21 13:17:00,87.3,75.9,29.95,SSW,203,2.0,2.0,69,0.00,,,0.00,meteohub,2013-07-21 20:17:00,
2013-07-21 13:22:00,77.0,64.8,29.94,SE,135,2.0,4.0,66,0.00,,,0.00,meteohub,2013-07-21 20:22:00,
2013-07-21 13:27:00,77.5,65.3,29.95,East,90,2.0,4.0,66,0.00,,,0.00,meteohub,2013-07-21 20:27:00,
2013-07-21 13:32:00,78.4,64.8,29.95,South,180,2.0,4.0,63,0.00,,,0.00,meteohub,2013-07-21 20:32:00,
2013-07-21 13:37:00,79.3,65.7,29.95,SSW,203,0.0,3.0,63,0.00,,,0.00,meteohub,2013-07-21 20:37:00,
2013-07-21 13:42:00,80.6,65.8,29.95,SSW,203,1.0,2.0,61,0.00,,,0.00,meteohub,2013-07-21 20:42:00,
2013-07-21 13:47:00,81.3,65.7,29.94,South,180,2.0,3.0,59,0.00,,,0.00,meteohub,2013-07-21 20:47:00,
2013-07-21 13:52:00,80.4,64.8,29.95,South,180,2.0,3.0,59,0.00,,,0.00,meteohub,2013-07-21 20:52:00,
2013-07-21 13:57:00,81.1,65.5,29.94,West,270,0.0,4.0,59,0.00,,,0.00,meteohub,2013-07-21 20:57:00,
2013-07-21 14:02:00,82.6,66.7,29.94,West,270,1.0,4.0,59,0.00,,,0.00,meteohub,2013-07-21 21:02:00,
2013-07-21 14:07:00,83.5,66.6,29.94,WSW,248,2.0,4.0,57,0.00,,,0.00,meteohub,2013-07-21 21:07:00,
2013-07-21 14:12:00,83.3,66.0,29.94,North,0,1.0,2.0,56,0.00,,,0.00,meteohub,2013-07-21 21:12:00,
2013-07-21 14:17:00,83.1,66.4,29.94,West,270,1.0,2.0,57,0.00,,,0.00,meteohub,2013-07-21 21:17:00,
2013-07-21 14:22:00,85.8,68.9,29.94,WSW,248,2.0,2.0,57,0.00,,,0.00,meteohub,2013-07-21 21:22:00,
2013-07-21 14:27:00,83.3,66.0,29.94,West,270,2.0,2.0,56,0.00,,,0.00,meteohub,2013-07-21 21:27:00,
2013-07-21 14:32:00,84.6,67.1,29.94,North,0,3.0,3.0,56,0.00,,,0.00,meteohub,2013-07-21 21:32:00,
2013-07-21 14:37:00,83.1,65.8,29.94,West,270,0.0,3.0,56,0.00,,,0.00,meteohub,2013-07-21 21:37:00,
2013-07-21 14:42:00,85.3,66.7,29.93,SSW,203,2.0,3.0,54,0.00,,,0.00,meteohub,2013-07-21 21:42:00,
2013-07-21 14:47:00,81.7,64.4,29.93,West,270,2.0,4.0,56,0.00,,,0.00,meteohub,2013-07-21 21:47:00,
2013-07-21 14:52:00,81.3,64.6,29.93,South,180,3.0,4.0,57,0.00,,,0.00,meteohub,2013-07-21 21:52:00,
2013-07-21 14:57:00,101.3,82.8,29.93,SE,135,2.0,4.0,56,0.00,,,0.00,meteohub,2013-07-21 21:57:00,
2013-07-21 15:02:00,83.7,66.4,29.93,North,0,1.0,3.0,56,0.00,,,0.00,meteohub,2013-07-21 22:02:00,
2013-07-21 15:07:00,83.1,64.8,29.92,South,180,4.0,4.0,54,0.00,,,0.00,meteohub,2013-07-21 22:07:00,
2013-07-21 15:12:00,85.8,67.8,29.92,SSW,203,2.0,4.0,55,0.00,,,0.00,meteohub,2013-07-21 22:12:00,
2013-07-21 15:17:00,83.3,65.5,29.92,West,270,1.0,4.0,55,0.00,,,0.00,meteohub,2013-07-21 22:17:00,
2013-07-21 15:22:00,82.8,65.5,29.92,SSW,203,1.0,4.0,56,0.00,,,0.00,meteohub,2013-07-21 22:22:00,
2013-07-21 15:27:00,82.8,66.0,29.92,West,270,0.0,3.0,57,0.00,,,0.00,meteohub,2013-07-21 22:27:00,
2013-07-21 15:32:00,81.9,64.6,29.92,South,180,2.0,3.0,56,0.00,,,0.00,meteohub,2013-07-21 22:32:00,
2013-07-21 15:37:00,82.2,65.5,29.92,West,270,2.0,3.0,57,0.00,,,0.00,meteohub,2013-07-21 22:37:00,
2013-07-21 15:42:00,81.9,65.7,29.92,West,270,2.0,3.0,58,0.00,,,0.00,meteohub,2013-07-21 22:42:00,
2013-07-21 15:47:00,81.9,65.7,29.92,West,270,1.0,2.0,58,0.00,,,0.00,meteohub,2013-07-21 22:47:00,
2013-07-21 15:52:00,82.0,65.3,29.92,ESE,113,1.0,2.0,57,0.00,,,0.00,meteohub,2013-07-21 22:52:00,
2013-07-21 15:57:00,82.8,65.5,29.92,North,0,2.0,3.0,56,0.00,,,0.00,meteohub,2013-07-21 22:57:00,
2013-07-21 16:02:00,84.7,67.3,29.91,WSW,248,1.0,3.0,56,0.00,,,0.00,meteohub,2013-07-21 23:02:00,
2013-07-21 16:07:00,84.0,66.6,29.92,West,270,2.0,3.0,56,0.00,,,0.00,meteohub,2013-07-21 23:07:00,
2013-07-21 16:12:00,85.8,67.3,29.92,East,90,2.0,2.0,54,0.00,,,0.00,meteohub,2013-07-21 23:12:00,
2013-07-21 16:17:00,82.9,65.7,29.91,WSW,248,2.0,2.0,56,0.00,,,0.00,meteohub,2013-07-21 23:17:00,
2013-07-21 16:45:00,82.6,65.8,29.91,West,270,0.0,2.0,57,0.00,,,0.00,meteohub,2013-07-21 23:45:00,
2013-07-21 16:50:00,81.9,65.1,29.91,North,0,2.0,2.0,57,0.00,,,0.00,meteohub,2013-07-21 23:50:00,
2013-07-21 16:55:00,83.1,66.4,29.90,West,270,0.0,2.0,57,0.00,,,0.00,meteohub,2013-07-21 23:55:00,
2013-07-21 17:00:00,83.1,65.8,29.90,West,270,1.0,2.0,56,0.00,,,0.00,meteohub,2013-07-22 00:00:00,
2013-07-21 17:05:00,83.1,66.7,29.90,West,270,0.0,2.0,58,0.00,,,0.00,meteohub,2013-07-22 00:05:00,
2013-07-21 17:10:00,83.3,66.0,29.90,West,270,2.0,2.0,56,0.00,,,0.00,meteohub,2013-07-22 00:10:00,
2013-07-21 17:15:00,83.7,65.8,29.90,West,270,2.0,2.0,55,0.00,,,0.00,meteohub,2013-07-22 00:15:00,
2013-07-21 17:20:00,84.9,67.5,29.90,SSW,203,1.0,2.0,56,0.00,,,0.00,meteohub,2013-07-22 00:20:00,
2013-07-21 17:25:00,82.0,65.3,29.90,WSW,248,0.0,2.0,57,0.00,,,0.00,meteohub,2013-07-22 00:25:00,
2013-07-21 17:30:00,81.9,65.7,29.90,West,270,0.0,2.0,58,0.00,,,0.00,meteohub,2013-07-22 00:30:00,
2013-07-21 17:35:00,81.7,65.5,29.89,West,270,1.0,2.0,58,0.00,,,0.00,meteohub,2013-07-22 00:35:00,
2013-07-21 17:40:00,80.8,64.6,29.90,WSW,248,1.0,2.0,58,0.00,,,0.00,meteohub,2013-07-22 00:40:00,
2013-07-21 17:45:00,79.0,63.9,29.90,North,-999,-999.0,2.0,60,0.00,,,0.00,meteohub,2013-07-22 00:45:00,
2013-07-21 17:50:00,77.7,63.7,29.90,West,270,0.0,2.0,62,0.00,,,0.00,meteohub,2013-07-22 00:50:00,
2013-07-21 17:55:00,75.0,62.4,29.90,North,0,1.0,1.0,65,0.00,,,0.00,meteohub,2013-07-22 00:55:00,
2013-07-21 18:00:00,74.5,63.1,29.89,North,0,2.0,2.0,68,0.00,,,0.00,meteohub,2013-07-22 01:00:00,
2013-07-21 18:05:00,73.9,63.5,29.89,North,0,0.0,2.0,70,0.00,,,0.00,meteohub,2013-07-22 01:05:00,
2013-07-21 18:10:00,73.2,63.3,29.89,North,-999,-999.0,2.0,71,0.00,,,0.00,meteohub,2013-07-22 01:10:00,
2013-07-21 18:15:00,72.5,62.6,29.89,West,270,1.0,2.0,71,0.00,,,0.00,meteohub,2013-07-22 01:15:00,
2013-07-21 18:20:00,72.5,63.0,29.88,North,0,1.0,1.0,72,0.00,,,0.00,meteohub,2013-07-22 01:20:00,
2013-07-21 18:25:00,72.3,63.1,29.89,North,-999,-999.0,1.0,73,0.00,,,0.00,meteohub,2013-07-22 01:25:00,
2013-07-21 18:30:00,72.0,62.8,29.89,West,270,0.0,1.0,73,0.00,,,0.00,meteohub,2013-07-22 01:30:00,
2013-07-21 18:35:00,72.0,63.1,29.88,West,270,1.0,2.0,74,0.00,,,0.00,meteohub,2013-07-22 01:35:00,
2013-07-21 18:40:00,71.8,63.0,29.88,West,270,0.0,2.0,74,0.00,,,0.00,meteohub,2013-07-22 01:40:00,
2013-07-21 18:45:00,71.6,63.3,29.88,West,270,0.0,2.0,75,0.00,,,0.00,meteohub,2013-07-22 01:45:00,
2013-07-21 18:50:00,71.2,62.6,29.88,North,0,0.0,1.0,74,0.00,,,0.00,meteohub,2013-07-22 01:50:00,
2013-07-21 18:55:00,71.4,63.1,29.88,North,0,0.0,0.0,75,0.00,,,0.00,meteohub,2013-07-22 01:55:00,
2013-07-21 19:00:00,71.2,63.3,29.88,West,270,1.0,0.0,76,0.00,,,0.00,meteohub,2013-07-22 02:00:00,
2013-07-21 19:05:00,71.1,63.1,29.88,West,270,0.0,2.0,76,0.00,,,0.00,meteohub,2013-07-22 02:05:00,
2013-07-21 19:10:00,71.1,63.1,29.88,West,270,0.0,2.0,76,0.00,,,0.00,meteohub,2013-07-22 02:10:00,
2013-07-21 19:15:00,70.9,63.3,29.88,West,270,0.0,2.0,77,0.00,,,0.00,meteohub,2013-07-22 02:15:00,
2013-07-21 19:20:00,70.7,63.5,29.88,North,-999,-999.0,2.0,78,0.00,,,0.00,meteohub,2013-07-22 02:20:00,
2013-07-21 19:25:00,70.2,63.0,29.88,West,270,0.0,2.0,78,0.00,,,0.00,meteohub,2013-07-22 02:25:00,
2013-07-21 19:30:00,68.5,61.3,29.88,West,270,0.0,1.0,78,0.00,,,0.00,meteohub,2013-07-22 02:30:00,
2013-07-21 19:35:00,68.4,61.2,29.88,North,-999,-999.0,1.0,78,0.00,,,0.00,meteohub,2013-07-22 02:35:00,
2013-07-21 19:40:00,69.3,62.4,29.88,WSW,248,0.0,0.0,79,0.00,,,0.00,meteohub,2013-07-22 02:40:00,
2013-07-21 19:45:00,68.9,62.4,29.88,WSW,248,0.0,0.0,80,0.00,,,0.00,meteohub,2013-07-22 02:45:00,
2013-07-21 19:51:00,68.9,62.8,29.88,WSW,248,0.0,0.0,81,0.00,,,0.00,meteohub,2013-07-22 02:51:00,
2013-07-21 19:56:00,68.7,63.0,29.88,North,0,0.0,1.0,82,0.00,,,0.00,meteohub,2013-07-22 02:56:00,
2013-07-21 20:32:00,67.1,62.1,29.89,North,0,0.0,0.0,84,0.00,,,0.00,meteohub,2013-07-22 03:32:00,
2013-07-21 20:37:00,66.9,61.9,29.89,North,0,0.0,0.0,84,0.00,,,0.00,meteohub,2013-07-22 03:37:00,
2013-07-21 20:42:00,66.6,61.9,29.89,North,0,0.0,0.0,85,0.00,,,0.00,meteohub,2013-07-22 03:42:00,
2013-07-21 20:47:00,66.4,61.7,29.89,North,0,0.0,0.0,85,0.00,,,0.00,meteohub,2013-07-22 03:47:00,
2013-07-21 20:52:00,66.2,61.9,29.90,North,0,0.0,0.0,86,0.00,,,0.00,meteohub,2013-07-22 03:52:00,
2013-07-21 20:57:00,66.0,61.7,29.90,North,0,0.0,0.0,86,0.00,,,0.00,meteohub,2013-07-22 03:57:00,
2013-07-21 21:01:00,65.8,61.5,29.90,North,0,0.0,0.0,86,0.00,,,0.00,meteohub,2013-07-22 04:01:00,
2013-07-21 21:02:00,65.8,61.5,29.90,North,0,0.0,0.0,86,0.00,,,0.00,meteohub,2013-07-22 04:02:00,
2013-07-21 21:07:00,65.5,61.5,29.90,North,0,0.0,0.0,87,0.00,,,0.00,meteohub,2013-07-22 04:07:00,
2013-07-21 21:12:00,65.1,61.5,29.90,North,0,0.0,0.0,88,0.00,,,0.00,meteohub,2013-07-22 04:12:00,
2013-07-21 21:17:00,64.8,61.2,29.90,North,0,0.0,0.0,88,0.00,,,0.00,meteohub,2013-07-22 04:17:00,
2013-07-21 21:22:00,64.4,61.2,29.90,North,0,0.0,0.0,89,0.00,,,0.00,meteohub,2013-07-22 04:22:00,
2013-07-21 21:27:00,64.0,61.0,29.90,North,0,0.0,0.0,90,0.00,,,0.00,meteohub,2013-07-22 04:27:00,
2013-07-21 22:05:00,63.0,61.2,29.91,North,0,0.0,0.0,94,0.00,,,0.00,meteohub,2013-07-22 05:05:00,
2013-07-21 22:10:00,62.6,60.8,29.91,North,0,0.0,0.0,94,0.00,,,0.00,meteohub,2013-07-22 05:10:00,
2013-07-21 22:15:00,62.2,60.8,29.91,North,0,0.0,0.0,95,0.00,,,0.00,meteohub,2013-07-22 05:15:00,
2013-07-21 22:20:00,62.2,61.2,29.91,North,0,0.0,0.0,96,0.00,,,0.00,meteohub,2013-07-22 05:20:00,
2013-07-21 22:25:00,61.9,60.8,29.91,North,0,0.0,0.0,96,0.00,,,0.00,meteohub,2013-07-22 05:25:00,
2013-07-21 22:30:00,61.7,60.8,29.91,North,0,0.0,0.0,97,0.00,,,0.00,meteohub,2013-07-22 05:30:00,
2013-07-21 22:35:00,61.7,60.8,29.91,North,0,0.0,0.0,97,0.00,,,0.00,meteohub,2013-07-22 05:35:00,
2013-07-21 22:40:00,61.5,61.0,29.91,North,0,0.0,0.0,98,0.00,,,0.00,meteohub,2013-07-22 05:40:00,
2013-07-21 22:45:00,61.2,60.6,29.91,North,0,0.0,0.0,98,0.00,,,0.00,meteohub,2013-07-22 05:45:00,
2013-07-21 22:50:00,61.0,60.6,29.91,North,0,0.0,0.0,99,0.00,,,0.00,meteohub,2013-07-22 05:50:00,
2013-07-21 22:55:00,60.8,60.4,29.91,North,0,0.0,0.0,99,0.00,,,0.00,meteohub,2013-07-22 05:55:00,
2013-07-21 23:00:00,60.8,60.4,29.91,North,0,0.0,0.0,99,0.00,,,0.00,meteohub,2013-07-22 06:00:00,
2013-07-21 23:05:00,60.4,60.1,29.91,North,0,0.0,0.0,99,0.00,,,0.00,meteohub,2013-07-22 06:05:00,
2013-07-21 23:10:00,60.3,59.9,29.91,North,0,0.0,0.0,99,0.00,,,0.00,meteohub,2013-07-22 06:10:00,
2013-07-21 23:15:00,60.1,59.7,29.91,North,0,0.0,0.0,99,0.00,,,0.00,meteohub,2013-07-22 06:15:00,
2013-07-21 23:20:00,60.3,59.9,29.91,North,0,0.0,0.0,99,0.00,,,0.00,meteohub,2013-07-22 06:20:00,
2013-07-21 23:25:00,60.1,59.7,29.91,North,0,0.0,0.0,99,0.00,,,0.00,meteohub,2013-07-22 06:25:00,
2013-07-21 23:30:00,59.9,59.5,29.92,North,0,0.0,0.0,99,0.00,,,0.00,meteohub,2013-07-22 06:30:00,
2013-07-21 23:35:00,59.7,59.4,29.91,North,0,0.0,0.0,99,0.00,,,0.00,meteohub,2013-07-22 06:35:00,
2013-07-21 23:40:00,59.7,59.4,29.92,North,0,0.0,0.0,99,0.00,,,0.00,meteohub,2013-07-22 06:40:00,
2013-07-21 23:45:00,59.5,59.2,29.92,North,0,0.0,0.0,99,0.00,,,0.00,meteohub,2013-07-22 06:45:00,
2013-07-21 23:50:00,59.4,59.0,29.92,North,0,0.0,0.0,99,0.00,,,0.00,meteohub,2013-07-22 06:50:00,
2013-07-21 23:55:00,59.4,59.0,29.92,North,0,0.0,0.0,99,0.00,,,0.00,meteohub,2013-07-22 06:55:00,